Regional Weather Roundup
Issued by NWS

Home | Current Version | Previous Version | Graphics & Text | Print | Product List | Glossary Off
Versions: 1 2 3 4 5 6 7 8 9 10 11 12 13 14 15 16 17 18 19 20 21 22 23 24 25 26 27 28 29 30 31 32 33 34 35 36 37 38 39 40 41 42 43 44 45 46 47 48 49 50

566
ASUS43 KMKX 021400
RWRWI

WISCONSIN REGIONAL WEATHER ROUNDUP
NATIONAL WEATHER SERVICE MILWAUKEE/SULLIVAN WI
800 AM CST FRI DEC 02 2016

NOTE: "FAIR" INDICATES FEW OR NO CLOUDS BELOW 12,000 FEET WITH NO
SIGNIFICANT WEATHER AND/OR OBSTRUCTIONS TO VISIBILITY.

WIZ001-002-006>008-014>016-023>028-021500-
NORTHWEST WISCONSIN

CITY           SKY/WX    TMP DP  RH WIND       PRES   REMARKS
SUPERIOR ARPT  CLOUDY    29  23  78 NW6       30.16R WCI  23
ASHLAND        CLOUDY    29  23  78 W15G21    30.14R WCI  18
HAYWARD        CLOUDY    29  21  72 NW3       30.12R
SIREN          CLOUDY    30  24  78 NW6       30.15R WCI  24
CUMBERLAND     CLOUDY    28  23  80 NW6       30.13R WCI  22
RICE LAKE      CLOUDY    30  23  75 NW3       30.15R
CHETEK         CLOUDY    29  23  76 W3        30.13R
LADYSMITH      CLOUDY    30  23  75 NW9       30.13R WCI  22
EAU CLAIRE     NOT AVBL
MENOMONIE      CLOUDY    31  22  69 W6        30.17R WCI  25
NEW RICHMOND   CLOUDY    29  23  76 W3        30.16R
OSCEOLA        CLOUDY    31  24  76 CALM      30.19R
$$

WIZ003>005-009-010-017-018-021500-
NORTH CENTRAL WISCONSIN

CITY           SKY/WX    TMP DP  RH WIND       PRES   REMARKS
MANITOWISH WTR CLOUDY    26  25  97 W8        30.06R WCI  18
ARBOR VITAE    CLOUDY    29  25  83 NW7       30.05R WCI  22
WOODRUFF       CLOUDY    29  25  83 NW7       30.05R WCI  22
RHINELANDER    CLOUDY    29  24  82 NW10      30.06R WCI  20
EAGLE RIVER    CLOUDY    27  23  85 NW7       30.04R WCI  20
LAND O LAKES   CLOUDY    28  27  95 NW7       30.06R WCI  21
PHILLIPS       CLOUDY    27  23  84 NW6       30.09R WCI  21
TOMAHAWK       CLOUDY    27  21  79 NW6       30.08R WCI  20
MEDFORD        CLOUDY    27  22  79 NW7       30.07R WCI  20
MERRILL        CLOUDY    28  23  81 NW7       30.09R WCI  21
$$

WIZ029-030-035-036-043>047-021500-
CENTRAL WISCONSIN

CITY           SKY/WX    TMP DP  RH WIND       PRES   REMARKS
WAUSAU         CLOUDY    28  22  78 NW9       30.08R WCI  19
MOSINEE        CLOUDY    28  25  86 NW12      30.10R WCI  18
MARSHFIELD     CLOUDY    29  21  72 NW10      30.09R WCI  20
STEVENS POINT  CLOUDY    28  21  74 NW8       30.10R WCI  20
WAUPACA        CLOUDY    33  25  70 NW5       30.10R WCI  29
WAUTOMA        CLOUDY    32  24  72 NW7         N/A  WCI  26
WISC RAPIDS    CLOUDY    31  23  72 NW8       30.12R WCI  23
CAMP DOUGLAS   NOT AVBL
$$

WIZ011>013-019>022-031-037>040-048>050-021500-
NORTHEAST WISCONSIN

CITY           SKY/WX    TMP DP  RH WIND       PRES   REMARKS
ANTIGO         CLOUDY    28  23  82 NW10      30.05R WCI  18
SHAWANO        CLOUDY    33  24  68 NW5       30.09R WCI  29
OCONTO         CLOUDY    32  23  70 NW3       30.07R
STURGEON BAY   CLOUDY    32  25  75 NW13      30.07R WCI  22
GREEN BAY      CLOUDY    34  25  69 NW12      30.08R WCI  25
MANITOWOC      NOT AVBL
APPLETON       CLOUDY    32  23  69 NW7       30.07R WCI  26
CLINTONVILLE   CLOUDY    32  23  69 N7        30.09R WCI  26
OSHKOSH        CLOUDY    32  23  69 NW7       30.09R WCI  26
$$

WIZ032>034-041-042-053>061-021500-
SOUTHWEST WISCONSIN

CITY           SKY/WX    TMP DP  RH WIND       PRES   REMARKS
LA CROSSE      CLOUDY    34  23  64 NW9       30.17R WCI  27
SPARTA         CLOUDY    31  23  72 NW7       30.15R WCI  24
VIROQUA        CLOUDY    31  26  83 NW8       30.12R WCI  23
BOSCOBEL       CLOUDY    36  23  59 NW7       30.16R WCI  30
PRAIRIE DU CHI CLOUDY    35  25  68 W8        30.15R WCI  28
PLATTEVILLE    CLOUDY    34  34 100 NW6       30.12R WCI  29
$$

WIZ056-057-062-063-064-067-068-021500-
SOUTH CENTRAL WISCONSIN

CITY           SKY/WX    TMP DP  RH WIND       PRES   REMARKS
REEDSBURG      CLOUDY    31  24  75 W7        30.13R WCI  25
BARABOO/DELLS  CLOUDY    32  22  68 NW5       30.11R WCI  27
LONE ROCK      CLOUDY    34  25  69 NW8       30.14R WCI  27
MINERAL POINT  CLOUDY    36  30  80 NW8       30.11R WCI  29
MADISON        CLOUDY    32  24  72 N8        30.12R WCI  25
MIDDLETON      CLOUDY    34  28  80 N6        30.12R WCI  29
WATERTOWN      CLOUDY    32  25  75 NW10G16   30.10R WCI  24
MONROE         CLOUDY    32  32 100 W6        30.10R WCI  26
JANESVILLE     NOT AVBL
$$

WIZ051-052-058>065-066-070>072-021500-
SOUTHEAST WISCONSIN

CITY           SKY/WX    TMP DP  RH WIND       PRES   REMARKS
MILWAUKEE      CLOUDY    35  24  64 NW10      30.10R WCI  27
WAUKESHA       CLOUDY    30  25  80 NW10G18   30.11R WCI  21
MILWAUKEE/TIMM CLOUDY    34  21  60 NW13      30.11R WCI  25
RACINE         CLOUDY    35  24  64 NW7       30.12R WCI  29
BURLINGTON     CLOUDY    34  29  81 CALM      30.10R
KENOSHA        CLOUDY    35  29  78 NW7       30.11R WCI  29
FOND DU LAC    CLOUDY    33  22  63 NW10      30.10R WCI  25
SHEBOYGAN      CLOUDY    33  25  72 NW7       30.08R WCI  27
WEST BEND      CLOUDY    32  25  74 NW8       30.09R WCI  25
JUNEAU         CLOUDY    32  25  76 W5        30.11R WCI  27
$$

LSZ147-162-021500-
LAKE SUPERIOR

STATION/POSITION TIME  TEMP    WIND        PRES    WAVE
                       AIR SEA DIR/SP/G            HT/PER
                 (UTC) (F)     (DEG/KT/KT) (MB)    (FT/S)
DEVILS ISLAND    1300   32     290/  9/ 12 1020.3R
PORT WING        1340   30     320/ 10/ 12 1020.7R
SAXON HARBOR     1340   30     240/  3/  6 1020.0R
$$

LMZ867-665-643>646-021500-
LAKE MICHIGAN

STATION/POSITION TIME  TEMP    WIND        PRES    WAVE
                       AIR SEA DIR/SP/G            HT/PER
                 (UTC) (F)     (DEG/KT/KT) (MB)    (FT/S)
CHAMBERS ISLAND  1340   33     270/  5/  9 1017.3R
NORTHPORT PIER   1340   34     300/ 11/ 19 1016.9R
SISTER BAY       1323   33     330/ 17/ 20   N/A
ALGOMA LAKESHORE 1321          340/  9/ 12   N/A
KEWAUNEE LAKESHO 1330   33     300/  6/  8 1017.4R
SHEBOYGAN LAKESH 1300   34     320/  9/ 11 1018.5R
PORT WASHINGTON  1330   35     290/  6/ 11 1019.6R
MILWAUKEE LAKESH 1330   35     300/ 10/ 13   N/A
S MID LAKE BUOY  1250   39 49  310/ 19/ 23 1017.8R   4/ 5
KENOSHA   LAKESH 1300   36     290/  6/  8 1018.6
$$

TC  - TEMPERATURE IN CELSIUS
VSB - VISIBILITY IN STATUTE MILES
WCI - WIND CHILL INDEX
HX  - HEAT INDEX





USA.gov is the U.S. government's official web portal to all federal, state and local government web resources and services.